Location: Hylvaty SDH
(49.9612°N, 16.4057°E)
Time: 12:40:37
(UTC+01:00)

Tiros 1 - Pass Details

Date: 05 October 2020
Orbit: 630 x 663 km, 48.4° (Epoch: 28 October)

Event Time Altitude Azimuth Distance (km) Brightness Sun altitude
Rises 18:17:31 0° 282° (WNW) 2,969 12.2 0.1°
Reaches altitude 10° 18:20:01 10° 273° (W) 2,061 11.8 -0.3°
Maximum altitude 18:24:16 33° 209° (SSW) 1,102 8.8 -1.0°
Drops below altitude 10° 18:28:32 10° 146° (SE) 2,069 9.5 -1.6°
Sets 18:31:03 0° 137° (SE) 2,981 10.2 -2.0°
